^^
Station Historical Data
 
Daily Summary for November 23, 2014 Units:  English    Metric   Both
« Previous Day
Next Day »
Daily Weekly Monthly Yearly Custom
  Current: High: Low: Average:
Temperature: 49.6 °F 51.3 °F 49.4 °F 50.4 °F
Dew Point: 45.0 °F 47.7 °F 45.0 °F 46.8 °F
Humidity: 84% 89% 84% 87%
Wind Speed: 3.0mph 8.0mph 2.0mph 5mph
Wind Gust: 6.0mph 14.0mph - -
WindSSE - - South
Pressure: 29.77 in 29.86 in 29.77 in -
Precipitation: 0.00 in      
Historical Graphs
 
 
Tabular Data for November 23, 2014
Time Temperature Dew Point Pressure Wind Wind Speed Wind Gust Humidity Rainfall Rate (Hourly)
00:09 51.3 °F 47.6 °F 29.86 in SSW 5.0 mph 12.0 mph 87% 0.00 in
00:19 51.2 °F 47.5 °F 29.86 in South 7.0 mph 13.0 mph 87% 0.00 in
00:29 51.2 °F 47.5 °F 29.85 in South 6.0 mph 10.0 mph 87% 0.00 in
00:39 51.2 °F 47.5 °F 29.85 in South 7.0 mph 12.0 mph 87% 0.00 in
00:49 51.1 °F 47.7 °F 29.84 in South 8.0 mph 13.0 mph 88% 0.00 in
00:59 51.0 °F 47.6 °F 29.83 in SSE 5.0 mph 12.0 mph 88% 0.00 in
01:09 51.0 °F 47.6 °F 29.84 in South 6.0 mph 10.0 mph 88% 0.00 in
01:19 50.9 °F 47.5 °F 29.83 in South 6.0 mph 12.0 mph 88% 0.00 in
01:29 50.7 °F 47.6 °F 29.83 in South 5.0 mph 10.0 mph 89% 0.00 in
01:39 50.5 °F 47.4 °F 29.83 in South 7.0 mph 12.0 mph 89% 0.00 in
01:49 50.5 °F 47.4 °F 29.83 in South 3.0 mph 14.0 mph 89% 0.00 in
01:59 50.5 °F 47.4 °F 29.83 in South 6.0 mph 10.0 mph 89% 0.00 in
02:09 50.5 °F 47.4 °F 29.83 in South 3.0 mph 12.0 mph 89% 0.00 in
02:19 50.6 °F 47.1 °F 29.82 in South 5.0 mph 10.0 mph 88% 0.00 in
02:29 50.5 °F 47.1 °F 29.82 in SSE 6.0 mph 12.0 mph 88% 0.00 in
02:39 50.4 °F 46.7 °F 29.81 in South 7.0 mph 12.0 mph 87% 0.00 in
02:49 50.3 °F 46.6 °F 29.81 in SSE 5.0 mph 12.0 mph 87% 0.00 in
02:59 50.2 °F 46.5 °F 29.80 in SSE 3.0 mph 9.0 mph 87% 0.00 in
03:09 49.9 °F 46.2 °F 29.80 in SSE 5.0 mph 9.0 mph 87% 0.00 in
03:19 49.8 °F 46.1 °F 29.80 in SSE 3.0 mph 10.0 mph 87% 0.00 in
03:29 49.7 °F 46.0 °F 29.80 in SSE 5.0 mph 8.0 mph 87% 0.00 in
03:39 49.7 °F 45.7 °F 29.79 in SSE 2.0 mph 8.0 mph 86% 0.00 in
03:49 49.6 °F 45.6 °F 29.79 in SSE 5.0 mph 9.0 mph 86% 0.00 in
03:59 49.4 °F 45.4 °F 29.79 in SSE 3.0 mph 8.0 mph 86% 0.00 in
04:09 49.4 °F 45.4 °F 29.78 in SSE 3.0 mph 8.0 mph 86% 0.00 in
04:19 49.5 °F 45.2 °F 29.78 in SSE 5.0 mph 9.0 mph 85% 0.00 in
04:29 49.6 °F 45.0 °F 29.77 in SSE 3.0 mph 6.0 mph 84% 0.00 in
jolietwx - Weather
Compliments of Weather Underground